DW7040 Weather Reports


time (UTC)temp
F
wind
direction
speed
knots
gust
knots
rain 1hr
in
rain 24hr
in
rain mn
in
humidity
%
barometer
mb
20260503010053 0 201 2.6 4.3 0.00 0.00 0.00 1001.9
20260503004542 0 201 2.6 5.2 0.00 0.00 0.00 1002.0
20260503003040 0 201 1.7 4.3 0.00 0.00 0.00 1002.1
20260503001532 0 201 2.6 4.3 0.00 0.00 0.00 1002.2
20260503000027 0 201 1.7 4.3 0.00 0.00 0.00 1002.3
20260502234523 0 201 1.7 3.5 0.00 0.00 0.00 1002.4
20260502233010 0 201 2.6 5.2 0.00 0.00 0.00 1002.4
20260502231503 0 201 2.6 4.3 0.00 0.00 0.00 1002.4
20260502230116 0 201 1.7 4.3 0.00 0.00 0.00 1002.4
20260502224555 0 201 1.7 5.2 0.00 0.00 0.00 1002.5
20260502223050 0 201 2.6 5.2 0.00 0.00 0.00 1002.5
20260502221546 0 201 1.7 5.2 0.00 0.00 0.00 1002.6
20260502220041 0 202 1.7 4.3 0.00 0.00 0.00 1002.7
20260502214536 0 202 2.6 3.5 0.00 0.00 0.00 1002.7
20260502213025 0 202 1.7 3.5 0.00 0.00 0.00 1002.7
20260502211517 0 202 1.7 4.3 0.00 0.00 0.00 1002.8
20260502210012 0 202 1.7 4.3 0.00 0.00 0.00 1002.9
20260502204515 0 202 1.7 2.6 0.00 0.00 0.00 1002.9
20260502203007 0 203 3.5 6.1 0.00 0.00 0.00 1002.9
20260502201559 0 203 4.3 7.0 0.00 0.00 0.00 1002.9
20260502200057 0 203 4.3 6.1 0.00 0.00 0.00 1003.0
20260502194554 0 203 2.6 7.0 0.00 0.00 0.00 1003.0
20260502193035 0 202 0.9 3.5 0.00 0.00 0.00 1003.0
20260502191530 0 202 1.7 5.2 0.00 0.00 0.00 1003.0
20260502190028 0 204 2.6 4.3 0.00 0.00 0.00 1003.1
20260502184528 0 204 2.6 4.3 0.00 0.00 0.00 1003.2
20260502183017 0 204 2.6 4.3 0.00 0.00 0.00 1003.2
20260502181513 0 203 2.6 5.2 0.00 0.00 0.00 1003.2
20260502163102 0 204 3.5 7.8 0.00 0.00 0.00 1003.5
20260502161555 0 204 3.5 7.8 0.00 0.00 0.00 1003.7
20260502151512 0 205 5.2 9.6 0.00 0.00 0.00 1004.3
20260502123101 0 243 4.3 11.3 0.00 0.00 0.00 1005.7
20260502121532 0 241 7.8 11.3 0.00 0.00 0.00 1006.0
20260502114522 0 243 6.1 9.6 0.00 0.00 0.00 1006.5
20260502113048 0 242 7.8 10.4 0.00 0.00 0.00 1006.6
20260502111505 0 241 7.0 11.3 0.00 0.00 0.00 1006.6
20260502110100 0 242 3.5 10.4 0.00 0.00 0.00 1006.5
20260502104531 0 240 7.0 10.4 0.00 0.00 0.00 1006.5
20260502103031 0 241 7.8 13.0 0.00 0.00 0.00 1006.4
20260502101529 0 241 4.3 12.2 0.00 0.00 0.00 1006.5
20260502071532 0 232 7.0 12.2 0.00 0.00 0.00 1007.3
20260502070040 0 232 5.2 8.7 0.00 0.00 0.00 1007.4
20260502064533 0 232 3.5 8.7 0.00 0.00 0.00 1007.3
20260502063027 0 231 5.2 9.6 0.00 0.00 0.00 1007.3
20260502061556 0 231 5.2 9.6 0.00 0.00 0.00 1007.2
20260502060054 0 232 5.2 8.7 0.00 0.00 0.00 1007.1
20260502054548 0 232 5.2 9.6 0.00 0.00 0.00 1007.1
20260502053053 0 232 6.1 8.7 0.00 0.00 0.00 1007.2
20260502051537 0 232 4.3 10.4 0.00 0.00 0.00 1007.3
20260502050003 0 232 7.8 12.2 0.00 0.00 0.00 1007.3
20260502044559 0 231 6.1 10.4 0.00 0.00 0.00 1007.3
20260502043058 0 231 7.0 13.0 0.00 0.00 0.00 1007.3
20260502041552 0 230 7.8 13.0 0.00 0.00 0.00 1007.4
20260502040006 0 230 6.1 12.2 0.00 0.00 0.00 1007.4
20260502034557 0 230 7.8 13.0 0.00 0.00 0.00 1007.4
20260502033048 0 229 8.7 13.0 0.00 0.00 0.00 1007.5
20260502031544 0 228 9.6 15.6 0.00 0.00 0.00 1007.5
20260502030042 0 226 8.7 13.9 0.00 0.00 0.00 1007.7
20260502024537 0 223 7.0 13.0 0.00 0.00 0.00 1007.8
20260502023054 0 223 7.8 12.2 0.00 0.00 0.00 1007.9
20260502021529 0 222 8.7 13.0 0.00 0.00 0.00 1007.9
20260502020036 0 221 7.8 12.2 0.00 0.00 0.00 1008.0
20260502014526 0 222 8.7 15.6 0.00 0.00 0.00 1008.1
20260502013021 0 219 8.7 16.5 0.00 0.00 0.00 1008.3
20260502011555 0 218 7.0 11.3 0.00 0.00 0.00 1008.4